Location: *
(45.4590°N, 16.3650°E)
Time: 21:27:15
(UTC+00:00)

Cosmos 2154 Rocket - Pass Details

Date: 17 January 2020
Orbit: 965 x 997 km, 82.9° (Epoch: 18 February)

Event Time Altitude Azimuth Distance (km) Brightness Sun altitude
Rises 16:40:04 0° 171° (S) 3,690 7.2 -10.5°
Reaches altitude 10° 16:42:39 10° 167° (SSE) 2,742 6.4 -10.9°
Maximum altitude 16:48:43 54° 92° (E) 1,187 4.1 -12.0°
Drops below altitude 10° 16:54:48 10° 17° (NNE) 2,738 6.0 -13.0°
Sets 16:57:21 0° 13° (NNE) 3,685 6.7 -13.4°
